Theta_e
286 287 288 288 288 288 287 288 288 289 288 292 289 293 295 295 296 296 296 297 297 299 302 306 311 315 318 321 323 325 327 328 329 329 330 330 332 334
286 286 286 287 287 287 287 287 288 287 289 287 288 289 292 293 294 294 295 296 296 296 298 301 303 306 311 315 317 319 321 323 324 326 327 328 330 330
285 285 285 287 285 286 287 287 286 287 286 286 287 289 288 289 290 291 292 293 294 294 294 295 296 297 300 301 308 314 316 317 319 321 323 325 326 326
284 284 284 286 285 285 286 285 285 285 286 282 284 285 285 288 289 288 289 290 291 293 294 293 294 294 295 296 297 298 305 312 313 314 316 319 320 321
285 284 283 284 284 285 285 285 286 287 286 283 283 285 286 286 287 289 287 288 289 292 291 292 293 293 292 294 295 296 297 298 299 305 307 308 308 310
285 286 285 283 284 285 286 284 285 286 286 286 284 284 285 286 288 285 285 286 285 288 289 290 290 291 292 292 293 294 295 296 296 297 296 299 300 301
284 284 286 284 284 285 284 284 284 285 286 284 284 283 282 284 284 287 286 286 285 286 287 287 287 288 288 290 292 292 292 292 295 295 296 296 296 297
282 283 284 284 283 284 285 284 283 282 283 283 282 282 282 283 286 287 287 286 283 287 286 284 287 286 286 287 290 291 291 290 290 291 293 295 296 296
284 281 281 282 281 282 285 286 285 283 282 284 281 280 280 282 284 286 286 287 285 288 288 284 288 285 287 287 289 289 289 290 290 289 289 290 292 294
284 282 281 280 279 280 283 283 284 285 283 283 283 282 282 283 284 286 287 288 289 288 289 286 289 287 289 288 288 288 288 288 288 289 290 289 289 291
285 283 280 279 279 280 281 281 280 283 286 282 282 281 282 282 284 286 284 285 285 285 286 286 288 288 289 290 290 287 287 287 287 287 287 288 290 290
283 282 280 278 278 279 279 278 278 278 283 285 286 286 286 286 284 285 284 282 283 284 284 284 285 286 286 290 291 292 292 287 287 287 287 287 287 287
279 279 279 279 279 279 279 277 277 280 281 282 283 284 285 285 285 286 285 284 282 282 283 284 284 285 285 286 289 291 291 292 291 291 289 288 288 287
277 278 279 279 280 279 279 279 279 280 280 280 280 281 282 284 285 286 286 287 287 284 285 286 283 283 283 283 286 290 290 291 291 291 292 291 289 289
279 280 279 280 280 280 279 279 279 279 279 279 278 279 281 283 285 285 286 287 288 287 285 285 285 285 284 283 284 286 286 289 290 290 292 293 292 293
280 281 280 279 279 279 280 280 279 279 278 277 278 279 281 281 282 283 282 284 284 286 288 288 286 286 284 284 285 285 287 286 290 291 291 291 291 292
280 280 278 278 277 277 278 278 278 277 277 277 278 278 278 279 280 281 282 282 281 282 284 287 288 288 287 286 284 286 287 288 290 290 289 289 290 291
278 276 276 276 275 276 276 276 277 277 277 277 278 278 277 278 278 280 281 281 280 281 282 284 285 285 286 289 289 287 288 287 288 288 288 286 286 290
276 276 275 275 275 275 275 275 275 277 278 278 278 278 278 278 279 279 280 280 279 280 282 284 284 283 280 279 286 286 285 285 285 285 286 286 285 287
276 275 275 275 275 274 275 275 276 277 278 278 278 278 279 278 278 279 279 279 279 280 282 284 283 282 280 279 279 283 284 283 284 284 284 287 288 286
275 274 275 274 274 274 274 275 276 276 277 277 277 278 278 278 278 279 280 280 280 281 280 282 284 284 285 285 281 283 288 286 286 285 286 285 284 285
275 273 274 274 273 273 274 276 276 276 276 276 276 277 278 279 280 280 281 281 282 283 284 285 287 287 286 284 283 284 285 288 289 286 284 284 284 282
274 274 274 274 273 273 274 274 274 275 275 274 275 276 277 279 281 282 283 283 284 283 283 283 285 286 285 284 283 284 284 285 286 286 287 286 285 284
Wind_Speed
13 12 10 9 7 7 6 6 6 5 5 6 7 11 8 8 13 12 15 28 29 23 15 4 7 10 12 14 17 19 21 22 24 25 26 26 25 24
10 14 12 11 9 7 6 6 5 6 2 6 6 6 8 7 15 12 11 21 29 30 24 17 16 4 8 13 15 17 18 18 20 22 23 23 23 20
14 15 15 15 11 9 8 6 6 7 4 5 5 8 10 10 10 9 9 10 12 29 24 24 27 26 21 19 6 17 17 18 19 19 19 21 21 20
14 13 16 11 15 13 10 11 9 10 6 6 6 7 8 9 10 11 7 9 7 21 26 26 30 29 28 28 26 27 8 18 20 19 18 19 19 18
12 12 15 17 16 13 13 12 8 5 5 5 5 4 4 7 6 4 9 8 8 19 20 23 29 31 30 30 30 27 24 23 21 14 20 20 20 20
14 11 13 15 16 16 13 13 11 8 7 4 6 5 4 5 3 6 6 9 9 9 16 20 25 27 26 28 28 29 28 26 24 23 25 9 21 22
13 16 14 21 26 19 11 14 14 11 8 8 7 7 9 8 10 6 5 3 7 8 7 9 13 8 12 17 19 25 26 27 23 17 14 15 11 11
14 15 16 21 22 28 10 16 16 14 13 10 9 10 12 10 9 7 8 7 4 7 6 9 8 9 10 9 18 20 21 22 23 23 18 14 8 13
14 15 14 14 21 19 19 7 14 17 12 11 11 11 11 12 10 10 9 8 7 6 4 6 5 6 6 6 15 16 16 17 16 15 17 17 12 11
14 15 17 18 20 21 15 14 14 12 10 8 10 9 9 10 10 8 9 3 5 8 10 7 5 3 3 3 11 11 11 11 11 11 11 10 13 13
14 14 17 18 24 27 16 15 14 14 9 6 4 2 5 8 13 8 8 7 5 6 10 5 6 4 4 4 3 4 5 7 8 9 8 11 10 7
14 15 21 21 23 24 16 15 13 14 14 13 11 9 11 8 10 10 8 7 7 3 9 5 6 5 2 3 2 1 2 4 4 4 4 7 7 4
12 13 12 23 21 20 20 14 14 13 12 10 9 9 9 10 8 9 9 7 6 4 5 5 5 5 3 4 2 2 2 1 4 5 11 10 12 10
12 11 12 21 20 17 15 19 17 12 9 8 9 9 9 9 9 8 8 7 5 5 6 5 3 5 5 4 3 4 5 5 3 3 4 8 14 15
11 13 18 19 19 14 19 20 14 10 9 9 9 8 9 9 10 10 9 10 7 2 2 4 3 5 4 4 5 4 4 2 4 4 3 3 4 4
14 10 13 14 15 13 12 12 10 10 10 10 9 9 9 9 9 9 7 8 7 6 4 2 3 4 5 5 6 6 5 4 1 3 4 4 5 5
11 9 10 10 11 10 10 10 10 10 10 9 9 9 9 9 9 9 8 7 7 7 7 5 7 6 5 8 6 6 5 4 4 4 4 5 5 5
9 10 11 11 11 12 11 10 10 12 10 9 9 9 9 9 9 8 8 7 7 7 7 6 6 6 6 5 10 5 4 3 3 4 5 6 7 5
11 11 11 11 11 11 11 11 11 11 11 9 10 9 9 8 10 8 8 8 8 8 7 6 6 6 7 7 4 5 6 7 7 6 6 6 8 7
11 11 11 11 11 11 11 11 11 11 10 10 9 9 9 9 9 8 8 9 9 9 8 8 7 7 7 7 7 8 9 8 7 7 8 7 8 13
12 12 11 12 11 11 11 10 11 10 11 10 10 9 9 9 9 8 8 10 10 7 8 7 7 7 7 5 6 7 5 11 13 10 9 8 9 8
11 12 11 11 11 11 11 11 11 10 10 10 9 9 9 9 9 9 9 9 9 9 8 8 8 6 4 5 8 9 7 6 7 13 17 16 8 8
12 12 11 11 11 11 11 11 11 10 11 11 10 10 10 9 10 9 9 9 8 7 8 7 7 6 6 6 8 7 11 9 7 7 6 10 15 22
Wind_Direction
346 338 337 339 331 323 311 296 285 294 25 18 355 22 2 17 27 27 21 21 42 35 34 340 240 229 215 203 200 201 203 206 207 205 203 200 199 202
342 345 349 347 341 333 336 322 316 281 307 359 24 6 19 13 26 33 24 42 33 43 38 42 53 8 250 221 208 202 198 200 200 201 204 202 194 185
349 357 348 355 354 353 350 342 353 346 84 42 15 21 24 22 27 35 19 28 26 47 43 51 55 53 52 41 245 202 196 192 192 193 192 192 181 172
345 3 354 354 6 358 356 359 13 20 28 53 13 12 23 15 37 36 29 37 31 38 43 48 52 49 47 49 46 45 35 188 176 175 176 174 164 152
349 0 3 359 5 1 5 1 0 8 29 32 30 15 17 11 15 46 35 35 32 36 34 35 50 49 44 44 46 43 44 50 28 153 151 144 133 128
348 2 23 5 356 6 15 11 358 14 7 30 39 27 22 5 18 18 39 44 24 23 29 29 44 38 41 45 44 46 41 39 40 35 19 86 128 125
6 357 26 18 2 359 16 22 14 11 14 27 22 30 17 10 17 3 23 24 45 18 28 19 42 23 30 35 48 52 50 41 45 46 59 46 27 58
16 7 6 22 5 352 22 61 48 21 22 18 25 22 20 6 5 15 16 25 31 10 10 34 24 24 27 35 41 54 56 57 44 39 29 46 11 63
17 12 5 17 8 356 348 15 65 43 22 26 25 21 13 1 355 16 20 35 47 26 16 47 21 35 33 33 46 47 44 49 54 51 37 22 18 46
16 25 10 9 9 355 350 4 14 28 27 30 36 26 19 3 352 9 357 37 64 43 11 51 23 41 58 65 48 50 50 41 28 16 37 36 25 351
12 43 25 5 4 2 2 9 11 2 5 138 116 136 112 37 1 25 15 26 32 50 23 352 27 17 29 59 104 92 49 34 17 8 355 347 344 341
7 9 27 6 6 7 4 8 6 349 358 1 19 23 24 39 38 28 25 24 8 58 23 13 12 4 35 58 30 121 204 196 201 227 269 290 294 306
1 1 5 358 2 11 14 10 359 340 1 5 14 9 16 16 29 24 24 19 13 27 56 12 14 12 16 347 345 330 339 86 254 211 219 224 230 234
357 356 355 353 2 13 13 6 7 7 4 8 12 10 4 3 11 16 14 11 20 1 3 1 8 2 359 350 358 9 351 332 307 306 298 200 213 218
343 350 357 358 4 9 13 12 13 10 4 8 8 6 358 354 358 8 4 7 0 51 350 7 345 339 340 319 312 315 333 301 293 292 288 306 298 264
346 2 5 4 11 8 9 12 13 7 5 3 1 356 355 3 1 5 359 360 353 359 8 23 349 328 323 308 307 303 307 310 279 262 260 263 261 271
354 1 6 6 8 8 9 9 10 7 7 359 356 357 1 358 2 356 358 352 355 352 353 359 351 339 300 279 277 279 289 289 297 304 300 284 262 243
7 9 10 6 5 2 3 2 4 1 359 356 355 358 356 354 353 354 0 358 354 351 348 345 343 336 333 295 210 271 292 305 323 318 301 291 290 284
15 13 9 5 4 1 360 358 355 354 351 354 354 357 353 351 348 353 353 353 353 348 340 328 333 336 338 335 341 258 336 327 314 302 294 294 294 291
12 7 5 3 2 359 358 354 347 351 353 352 354 352 354 352 348 351 349 346 342 332 336 342 347 349 334 319 311 305 274 278 286 292 289 278 273 270
5 4 1 0 1 357 354 346 347 349 352 350 353 352 353 346 343 346 339 339 331 334 329 329 320 286 276 276 268 277 283 228 238 270 285 288 291 287
2 360 357 359 358 353 344 346 347 351 353 351 348 347 345 337 339 338 336 330 325 320 331 330 325 333 323 299 313 318 317 311 284 250 246 251 276 287
2 355 353 357 356 347 347 349 347 349 351 349 345 344 338 334 336 327 325 331 342 352 342 329 328 334 332 335 319 313 317 322 319 307 293 267 242 245